This is the latest recevied weather packets stored in our database for station/object APPOWX. If no packets are shown the sender has not sent any weather packets the latest 10 day(s).
| Time | Temp. | Humidity | Pressure | Rain* | Wind** | Luminosity | Snow |
|---|---|---|---|---|---|---|---|
| 1778276803 | 20° C | 38% | 1015.6 hPa | 0 mm | - | - | - |
| 1778276744 | 20° C | 37% | 1015.5 hPa | 0 mm | - | - | - |
| 1778276683 | 19.44° C | 37% | 1015.5 hPa | 0 mm | - | - | - |
| 1778276623 | 19.44° C | 38% | 1015.7 hPa | 0 mm | - | - | - |
| 1778276564 | 19.44° C | 36% | 1015.6 hPa | 0 mm | - | - | - |
| 1778276503 | 19.44° C | 35% | 1015.5 hPa | 0 mm | - | - | - |
| 1778276443 | 19.44° C | 36% | 1015.7 hPa | 0 mm | - | - | - |
| 1778276384 | 19.44° C | 38% | 1015.7 hPa | 0 mm | - | - | - |
| 1778276323 | 19.44° C | 42% | 1015.8 hPa | 0 mm | - | - | - |
| 1778276264 | 19.44° C | 40% | 1015.7 hPa | 0 mm | - | - | - |
| 1778276203 | 19.44° C | 39% | 1015.4 hPa | 0 mm | - | - | - |
| 1778276143 | 19.44° C | 41% | 1015.7 hPa | 0 mm | - | - | - |
| 1778276083 | 19.44° C | 37% | 1015.8 hPa | 0 mm | - | - | - |
| 1778276023 | 19.44° C | 36% | 1015.7 hPa | 0 mm | - | - | - |
| 1778275962 | 20° C | 35% | 1015.7 hPa | 0 mm | - | - | - |
| 1778275903 | 19.44° C | 35% | 1015.5 hPa | 0 mm | - | - | - |
| 1778275843 | 20° C | 36% | 1015.6 hPa | 0 mm | - | - | - |
| 1778275782 | 20° C | 38% | 1015.6 hPa | 0 mm | - | - | - |
| 1778275723 | 20° C | 37% | 1015.7 hPa | 0 mm | - | - | - |
| 1778275663 | 19.44° C | 36% | 1015.7 hPa | 0 mm | - | - | - |
| 1778275602 | 20° C | 36% | 1015.8 hPa | 0 mm | - | - | - |
| 1778275543 | 19.44° C | 35% | 1015.9 hPa | 0 mm | - | - | - |
| 1778275482 | 20° C | 38% | 1016 hPa | 0 mm | - | - | - |
| 1778275422 | 20° C | 39% | 1015.9 hPa | 0 mm | - | - | - |
| 1778275363 | 20° C | 39% | 1015.8 hPa | 0 mm | - | - | - |
* Rain latest hour (hover to see other rain measurements)
** Current wind speed in m/s (hover to see current wind gust speed)